THOR ABLESTAR DEB

Satellite information

Favourite Embed

Satellite Type and Status

DEBRISIN ORBIT

Key statistics

Satellite THOR ABLESTAR DEB at a glance.

Uptime

23323

Days in orbit

Revolutions

≈ 14.4

Per day

Orbit

LEO

Low Earth Orbit

Inclination

66.2

Latest

Satellite identification and parameters

Extended collection of information and parameters for THOR ABLESTAR DEB.

Object identification

Identified? True

Debris? True

Object name: THOR ABLESTAR DEB

International designator: 1961-015FS

Object number (NORAD): 480

Object ID (CCSDS): 480

Country: UNITED STATES OF AMERICA (US)

Current information (Y/N): Y

RCS size: SMALL

Orbital parameters

Period: 99.966 minutes

Inclination: 66.2373 deg

SMA: 7135.023 km

Apoapsis: 810.002 km

Periapsis: 703.774 km

RAAN: 87.3864 deg

Eccentricy: 0.0074441

Argument of periapsis: 34.04 deg

Mean anomaly: 326.5442 deg

Mean motion: 14.40488188 rev/day

Mean motion (dot): 0.00003232 rev/day2

B* drag term: 0.0010098 1/REarth

Two-line elements (TLE)

Creation date: May 6, 2025, 3:54 a.m.

Reference frame: TEME

Reference center: EARTH

Epoch: May 5, 2025, 5:48 p.m. UTC

TLE line 0: 0 THOR ABLESTAR DEB

TLE line 1: 1 00480U 61015FS 25125.74230030 .00003232 00000-0 10098-2 0 9999

TLE line 2: 2 00480 66.2373 87.3864 0074441 34.0400 326.5442 14.40488188296096

Live tracking on map

Real-time ground track for satellite THOR ABLESTAR DEB.

In-orbit conjunctions

A list of the most updated potential collisions computed for object THOR ABLESTAR DEB.

Target Orbit TCA Probability of collision Miss distance Type
RESURS O1-N4 SSO 2025-03-26 00:43:41 0.0001239301 229.0 (m) PAYLOAD
CZ-6A DEB LEO 2025-02-26 12:42:15 0.000143461 336.0 (m) DEBRIS
FENGYUN 1C DEB SSO 2024-09-27 18:22:54 0.0001599284 520.0 (m) DEBRIS
SL-8 R/B LEO 2024-07-24 19:28:48 0.0003398704 711.0 (m) ROCKET BODY
NOAA 17 DEB SSO 2024-06-27 22:55:25 0.0002495095 200.0 (m) DEBRIS

Associated space launch

THOR ABLESTAR DEB was lifted into orbit during the mission ‘Thor DM-21 Ablestar | Transit 4A & Injun-1 & Solrad 3’, on board a Thor DM-21 Ablestar space rocket.

The launch took place on June 29, 1961, 4:23 a.m. from Space Launch Complex 17B.

For more information about the launch, click the button.

Launch to space Thor DM-21 Ablestar | Transit 4A & Injun-1 & Solrad 3
Thor DM-21 Ablestar | Transit 4A & Injun-1 & Solrad 3

Agency: N/A

Status: Launch Successful

Launch date: June 29, 1961, 4:23 a.m. UTC

Rocket: Thor DM-21 Ablestar

Launch pad: Space Launch Complex 17B

Location: Cape Canaveral SFS, FL, USA

...

Latest news about this satellite

There are no fresh news available about this satellite. Check back as we update our databases every day.


Newsletter sign-up

Weekly statistics, charts and insights to help you stay on top of the space industry.